Preview of NWS' New Version of Forecast
This preview is not operational and should not be used for support decisions.

Regional Weather Roundup (RWR)

Issued by National Weather Service (NWS)

                            
000
ASUS43 KLSX 212310
RWRMO 

WEATHER SUMMARY FOR MISSOURI
NATIONAL WEATHER SERVICE SPRINGFIELD MO
600 PM CDT THU JUN 21 2018

NOTE: "FAIR" INDICATES FEW OR NO CLOUDS BELOW 12,000 FEET WITH NO
       SIGNIFICANT WEATHER AND/OR OBSTRUCTIONS TO VISIBILITY.
       CURRENT SKY AND/OR WEATHER CONDITIONS ARE NOT AVAILABLE FOR
       CHILLICOTHE AND FARMINGTON.

MOZ001>031-035>038-043-044-053-054-220000-
...NORTHERN AND WESTERN MISSOURI...
  
CITY           SKY/WX    TMP DP  RH WIND       PRES   REMARKS
KANSAS CTY INT CLOUDY    70  64  81 NW12G20   29.74S                  
KANSAS C DTWN  CLOUDY    70  63  78 NW10      29.73R                  
ST JOSEPH      CLOUDY    72  65  78 NW10      29.75R                  
CHILLICOTHE      N/A     72  64  76 VRB5      29.72S                  
KIRKSVILLE     CLOUDY    67  67 100 NW3       29.72F                  
     
$$
MOZ066>068-077>081-088>096-101>105-220000-
...SOUTHWEST MISSOURI...
  
CITY           SKY/WX    TMP DP  RH WIND       PRES   REMARKS
SPRINGFIELD    CLOUDY    78  57  48 W8        29.76F                  
JOPLIN         CLOUDY    81  57  43 NW12      29.78S                  
BRANSON        PTSUNNY   81  57  44 W10G22    29.81F                  
               
$$
MOZ032>034-039>042-045>050-055>058-069>072-220000-
...CENTRAL MISSOURI...  
  
CITY           SKY/WX    TMP DP  RH WIND       PRES   REMARKS
COLUMBIA       CLOUDY    70  62  76 W12       29.71F                  
JEFFERSON CITY CLOUDY    68  64  87 W9        29.72S                  
ROLLA          CLOUDY    70  62  76 SW5       29.74F                  
SEDALIA        LGT RAIN  68  65  90 W8        29.72F FOG              
WHITEMAN AFB   LGT RAIN  69  63  81 NW15      29.68                   
WARRENSBURG    CLOUDY    70  61  73 W15       29.72S                  
OSAGE BEACH    CLOUDY    72  63  73 W7        29.74F                  
               
$$
MOZ051-052-059>065-220000-
...EAST CENTRAL MISSOURI...
  
CITY           SKY/WX    TMP DP  RH WIND       PRES   REMARKS
ST LOUIS INTL  CLOUDY    78  61  55 W30G41    29.71R                  
SPIRIT OF STL  CLOUDY    71  62  73 W12       29.71R                  
ST CHARLES     PTSUNNY   77  61  57 W30G40    29.70R                  
                   
$$
MOZ072>076-082>087-097>100-106>115-220000-
...SOUTH CENTRAL AND SOUTHEAST MISSOURI...
  
CITY           SKY/WX    TMP DP  RH WIND       PRES   REMARKS
CAPE GIRARDEAU FAIR      79  69  71 SW6       29.70F                  
FARMINGTON     PTSUNNY   77  60  55 W9        29.75S                  
POPLAR BLUFF   FAIR      85  61  44 W14G21    29.71R                  
WEST PLAINS    CLOUDY    78  59  51 W7        29.79S                  
                                       
$$